Regional Weather Roundup
Issued by NWS Huntsville, AL

Home | Current Version | Previous Version | Text Only | Print | Product List | Glossary On
Versions: 1 2 3 4 5 6 7 8 9 10 11 12 13 14 15 16 17 18 19 20 21 22 23 24 25 26 27 28 29 30 31 32 33 34 35 36 37 38 39 40 41 42 43 44 45 46 47 48 49 50
000
ASUS44 KHUN 251610
RWRHUN

WEATHER ROUNDUP FOR THE TENNESSEE VALLEY
NATIONAL WEATHER SERVICE HUNTSVILLE AL
1100 AM CDT SAT MAR 25 2017

ALZ001>004-251700-
NORTHWEST ALABAMA

CITY           SKY/WX    TMP DP  RH WIND       PRES   REMARKS
SHOALS AIRPORT CLOUDY    65  53  65 W12       30.12R
$$

ALZ005>007-016-251700-
NORTH CENTRAL ALABAMA

CITY           SKY/WX    TMP DP  RH WIND       PRES   REMARKS
DECATUR AP     CLOUDY    68  56  65 S22G29    30.12F
HUNTSVILLE AP  CLOUDY    72  55  55 S17G28    30.13S
MERIDIANVILLE  MOSUNNY   70  50  49 S12G23    30.14F
REDSTONE ARSN  CLOUDY    70  54  56 S16G26    30.12F
VINEMONT AP    FAIR      70  54  56 S14G23    30.16F
$$

ALZ008>010-251700-
NORTHEAST ALABAMA

CITY           SKY/WX    TMP DP  RH WIND       PRES   REMARKS
ALBERTVILLE    MOSUNNY   70  59  68 S14G24    30.16F
FORT PAYNE     MOSUNNY   68  50  52 S10G20    30.18S
SCOTTSBORO AP  MOSUNNY   70  54  56 SW8G16    30.19S
SCOTTSBORO HCN   N/A     70 N/A N/A MISG        N/A
VALLEY HEAD      N/A     66 N/A N/A MISG        N/A
$$

TNZ076-096-097-251700-
SOUTHEASTERN MIDDLE TENNESSEE

CITY           SKY/WX    TMP DP  RH WIND       PRES   REMARKS
TULLAHOMA      SUNNY     70  48  46 S16       30.15S
WINCHESTER     MOSUNNY   68  52  56 SE16      30.16F
$$

...SURROUNDING SITES...

CITY           SKY/WX    TMP DP  RH WIND       PRES   REMARKS
ATLANTA        PTSUNNY   69  54  58 S12       30.26F
ANNISTON       MOSUNNY   73  57  57 VRB5      30.19F
BIRMINGHAM     PTSUNNY   72  54  53 SE14G29   30.18F
CHATTANOOGA    PTSUNNY   70  52  52 SE17      30.19F
DALTON         MOSUNNY   68  54  60 SE10G16   30.22F
GADSDEN        MOSUNNY   73  55  53 S12G20    30.18F
GOLDEN TRNGL   LGT RAIN  59  54  82 S14       30.06S FOG
HALEYVILLE     CLOUDY    68  55  63 S12G22    30.13R
JACKSON TN     CLOUDY    62  59  90 S13G21    29.99R
MEMPHIS        CLOUDY    63  59  87 S17G25    29.94R
NASHVILLE      CLOUDY    73  51  46 S17G32    30.08F
OXFORD MS      FAIR      59  57  94 S14G21    30.02R
ROME           MOSUNNY   72  53  51 SE18      30.20F
SAVANNAH       SUNNY     61  57  88 S13G21    30.04S
TUPELO         CLOUDY    60  57  89 SE15      30.06R
TUSCALOOSA     PTSUNNY   72  55  55 S23G30    30.13F
$$

...GULF COAST WEATHER...

CITY           SKY/WX    TMP DP  RH WIND       PRES   REMARKS
GULFPORT       CLOUDY    75  66  73 SE20      30.12R
PASCAGOULA     PTSUNNY   75  63  66 SE18G28   30.14S
MOBILE         PTSUNNY   74  63  68 S21G28    30.15R
GULF SHORES    MOSUNNY   74  68  80 SE16G24   30.17S
PENSACOLA      PTSUNNY   76  65  68 SE15G24   30.17S
DESTIN         CLOUDY    74  68  81 SE15G22   30.21R
PANAMA CITY    MOSUNNY   74  60  60 SE15G23   30.22S
APPALACHICOLA  SUNNY     73  64  73 SE14      30.24S
$$




USA.gov is the U.S. government's official web portal to all federal, state and local government web resources and services.